Flag for Tunisia Weather past 2 weeks in Sfax, Tunisia

Now
79 °F

Passing clouds.


Feels Like: 78 °F
Forecast: 59 / 80 °F
Wind: 16 mph from West

Location: Sfax El-Maou

Current Time: Mar 30, 2015 at 3:35:56 PM

Latest Report: Mar 30, 2015 at 3:00 PM


Visibility: N/A

Pressure: 30.04 "Hg

Humidity: 26%

Dew point: 41 °F

Location of SfaxLocation

Historic Weather in Sfax — Graph

°F

Sfax temperature yesterday

Maximum temperature yesterday: 72 °F (at 2:00 PM)
Minimum temperature yesterday: 48 °F (at 6:00 AM)
Average temperature yesterday: 60 °F

Past Weeks' High & Low Weather Summary

 TemperatureHumidityPressure
High79 °F (Mar 22, 4:00 PM)100% (Mar 25, 12:00 AM)30.15 "Hg (Mar 25, 12:00 AM)
Low48 °F (Mar 18, 4:00 AM)16% (Mar 22, 4:00 PM)29.45 "Hg (Mar 24, 6:00 PM)
Average60 °F70%29.90 "Hg
* Reported Mar 15 2:00 PM — Mar 30 2:00 PM, Sfax, Weather by CustomWeather, © 2015

Note: Actual official high and low records may vary slightly from our data, if they occured in-between our weather recording intervals... More about our weather records

Advertising

Sfax weather history for previous 24 hours

 ConditionsComfort  
Time TempWeatherWind HumidityBarometerVisibility
2:00 PM
Mon, Mar 30
75 °FPassing clouds.7 mph31%30.04 "HgN/A
1:00 PM75 °FPassing clouds.10 mph29%30.07 "HgN/A
12:00 PM73 °FPassing clouds.9 mph33%30.09 "HgN/A
11:00 AM72 °FPassing clouds.9 mph36%30.12 "HgN/A
10:00 AM70 °FPassing clouds.10 mph40%30.12 "HgN/A
9:00 AM66 °FPassing clouds.12 mph46%30.12 "HgN/A
8:00 AM61 °FPassing clouds.10 mph52%30.12 "HgN/A
7:00 AM57 °FPassing clouds.9 mph55%30.09 "HgN/A
6:00 AM54 °FPassing clouds.6 mph67%30.09 "HgN/A
5:00 AM48 °FPassing clouds.5 mph82%30.09 "HgN/A
4:00 AM54 °FPassing clouds.6 mph67%30.09 "HgN/A
3:00 AM48 °FPassing clouds.7 mph82%30.09 "HgN/A
2:00 AM50 °FPassing clouds.5 mph76%30.12 "HgN/A
1:00 AM55 °FPassing clouds.5 mph63%30.12 "HgN/A
12:00 AM59 °FPassing clouds.2 mph51%30.15 "HgN/A
11:00 PM
Sun, Mar 29
59 °FPassing clouds.6 mph63%30.12 "HgN/A
10:00 PM57 °FPassing clouds.3 mph82%30.12 "HgN/A
9:00 PM59 °FPassing clouds.1 mph77%30.12 "HgN/A
8:00 PM63 °FPassing clouds.5 mph68%30.09 "HgN/A
7:00 PM66 °FPassing clouds.2 mph49%30.07 "HgN/A
6:00 PM72 °FScattered clouds.6 mph36%30.07 "HgN/A
5:00 PM72 °FScattered clouds.12 mph36%30.04 "HgN/A
4:00 PM70 °FScattered clouds.15 mph38%30.04 "HgN/A
3:00 PM70 °FScattered clouds.22 mph35%30.04 "HgN/A
Weather by CustomWeather, © 2015

See weather overviewHow to use our weather pages